Wetterdaten: aktuell Dienstag, 25.06.2019 05:57
Datum Zeit Temp. A. Feuchte A. Luftdruck Regen Wind Richtung Richtung Sonnenschein UV Solar Taupunkt Windchill Windben Empfang
25.06.2019 05:57 15,9 C 91 % 1021,9 hPa 0,0 l/m 4,0 kts (2 Bft) N-NO 13 0 min 0,0 UV-I 23 W/m 14,4 C 15,3 C 4,3 kts (2 Bft) 100,00 %
25.06.2019 05:56 15,9 C 91 % 1021,9 hPa 0,0 l/m 4,0 kts (2 Bft) N-NO 13 0 min 0,0 UV-I 23 W/m 14,4 C 15,4 C 4,3 kts (2 Bft) 96,55 %
25.06.2019 05:55 15,8 C 91 % 1021,9 hPa 0,0 l/m 3,7 kts (2 Bft) N-NO 13 0 min 0,0 UV-I 23 W/m 14,3 C 15,5 C 4,3 kts (2 Bft) 100,00 %
25.06.2019 05:54 15,8 C 91 % 1021,9 hPa 0,0 l/m 4,0 kts (2 Bft) N-NO 13 0 min 0,0 UV-I 21 W/m 14,3 C 15,2 C 6,1 kts (2 Bft) 96,15 %
25.06.2019 05:53 15,8 C 91 % 1021,8 hPa 0,0 l/m 4,5 kts (2 Bft) N-NO 13 0 min 0,0 UV-I 21 W/m 14,3 C 14,8 C 6,1 kts (2 Bft) 100,00 %
25.06.2019 05:52 15,8 C 91 % 1021,9 hPa 0,0 l/m 4,2 kts (2 Bft) N-NO 13 0 min 0,0 UV-I 21 W/m 14,3 C 15,0 C 6,1 kts (2 Bft) 95,65 %
25.06.2019 05:51 15,7 C 92 % 1021,8 hPa 0,0 l/m 4,6 kts (2 Bft) N-NO 13 0 min 0,0 UV-I 21 W/m 14,4 C 14,5 C 6,1 kts (2 Bft) 100,00 %
25.06.2019 05:50 15,7 C 92 % 1021,9 hPa 0,0 l/m 4,6 kts (2 Bft) N-NO 13 0 min 0,0 UV-I 21 W/m 14,4 C 14,6 C 6,1 kts (2 Bft) 96,55 %
25.06.2019 05:49 15,6 C 92 % 1021,9 hPa 0,0 l/m 4,3 kts (2 Bft) N-NO 13 0 min 0,0 UV-I 21 W/m 14,3 C 14,7 C 6,1 kts (2 Bft) 96,15 %
25.06.2019 05:48 15,6 C 92 % 1021,9 hPa 0,0 l/m 4,7 kts (2 Bft) N-NO 13 0 min 0,0 UV-I 21 W/m 14,3 C 14,4 C 6,1 kts (2 Bft) 100,00 %
25.06.2019 05:47 15,5 C 92 % 1021,9 hPa 0,0 l/m 4,7 kts (2 Bft) N-NO 13 0 min 0,0 UV-I 19 W/m 14,2 C 14,3 C 6,1 kts (2 Bft) 95,65 %
25.06.2019 05:46 15,4 C 92 % 1021,9 hPa 0,0 l/m 4,6 kts (2 Bft) N-NO 13 0 min 0,0 UV-I 19 W/m 14,1 C 14,2 C 7,0 kts (3 Bft) 100,00 %
25.06.2019 05:45 15,4 C 93 % 1021,9 hPa 0,0 l/m 4,9 kts (2 Bft) N-NO 13 0 min 0,0 UV-I 19 W/m 14,3 C 14,0 C 6,1 kts (2 Bft) 95,65 %
25.06.2019 05:44 15,4 C 93 % 1021,9 hPa 0,0 l/m 4,5 kts (2 Bft) N-NO 13 0 min 0,0 UV-I 19 W/m 14,3 C 14,3 C 6,1 kts (2 Bft) 100,00 %
25.06.2019 05:43 15,3 C 93 % 1021,9 hPa 0,0 l/m 5,0 kts (2 Bft) N-NO 13 0 min 0,0 UV-I 19 W/m 14,2 C 13,8 C 6,1 kts (2 Bft) 96,67 %
25.06.2019 05:42 15,3 C 93 % 1021,9 hPa 0,0 l/m 4,7 kts (2 Bft) N-NO 13 0 min 0,0 UV-I 18 W/m 14,2 C 14,1 C 6,1 kts (2 Bft) 95,65 %
25.06.2019 05:41 15,3 C 93 % 1022,0 hPa 0,0 l/m 4,4 kts (2 Bft) N-NO 13 0 min 0,0 UV-I 18 W/m 14,2 C 14,4 C 6,1 kts (2 Bft) 100,00 %
25.06.2019 05:40 15,2 C 92 % 1022,0 hPa 0,0 l/m 4,3 kts (2 Bft) N-NO 13 0 min 0,0 UV-I 18 W/m 13,9 C 14,4 C 6,1 kts (2 Bft) 100,00 %
25.06.2019 05:39 15,2 C 92 % 1022,0 hPa 0,0 l/m 4,7 kts (2 Bft) N-NO 13 0 min 0,0 UV-I 18 W/m 13,9 C 14,0 C 6,1 kts (2 Bft) 95,83 %
25.06.2019 05:38 15,3 C 92 % 1022,0 hPa 0,0 l/m 4,3 kts (2 Bft) N-NO 13 0 min 0,0 UV-I 18 W/m 14,0 C 14,5 C 4,3 kts (2 Bft) 96,15 %
25.06.2019 05:37 15,3 C 93 % 1022,0 hPa 0,0 l/m 4,1 kts (2 Bft) N-NO 13 0 min 0,0 UV-I 18 W/m 14,2 C 14,6 C 4,3 kts (2 Bft) 100,00 %
25.06.2019 05:36 15,3 C 92 % 1022,0 hPa 0,0 l/m 4,1 kts (2 Bft) N-NO 13 0 min 0,0 UV-I 16 W/m 14,0 C 14,6 C 4,3 kts (2 Bft) 95,83 %
25.06.2019 05:35 15,3 C 92 % 1022,0 hPa 0,0 l/m 4,1 kts (2 Bft) N-NO 13 0 min 0,0 UV-I 16 W/m 14,0 C 14,6 C 6,1 kts (2 Bft) 100,00 %
25.06.2019 05:34 15,4 C 93 % 1022,0 hPa 0,0 l/m 3,9 kts (2 Bft) N-NO 23 0 min 0,0 UV-I 16 W/m 14,3 C 15,0 C 4,3 kts (2 Bft) 95,65 %
25.06.2019 05:33 15,4 C 93 % 1022,0 hPa 0,0 l/m 3,9 kts (2 Bft) N-NO 23 0 min 0,0 UV-I 16 W/m 14,3 C 15,0 C 4,3 kts (2 Bft) 95,83 %
25.06.2019 05:32 15,4 C 93 % 1022,1 hPa 0,0 l/m 4,0 kts (2 Bft) N-NO 23 0 min 0,0 UV-I 16 W/m 14,3 C 14,8 C 4,3 kts (2 Bft) 100,00 %
25.06.2019 05:31 15,4 C 92 % 1022,0 hPa 0,0 l/m 3,8 kts (2 Bft) N-NO 23 0 min 0,0 UV-I 16 W/m 14,1 C 15,1 C 4,3 kts (2 Bft) 95,83 %
25.06.2019 05:30 15,3 C 92 % 1022,0 hPa 0,0 l/m 3,8 kts (2 Bft) N-NO 23 0 min 0,0 UV-I 14 W/m 14,0 C 15,0 C 4,3 kts (2 Bft) 100,00 %
25.06.2019 05:29 15,3 C 93 % 1022,0 hPa 0,0 l/m 3,6 kts (2 Bft) N-NO 23 0 min 0,0 UV-I 14 W/m 14,2 C 15,2 C 4,3 kts (2 Bft) 100,00 %
25.06.2019 05:28 15,3 C 93 % 1022,0 hPa 0,0 l/m 3,7 kts (2 Bft) N-NO 23 0 min 0,0 UV-I 14 W/m 14,2 C 15,0 C 4,3 kts (2 Bft) 100,00 %
25.06.2019 05:27 15,3 C 93 % 1022,0 hPa 0,0 l/m 3,8 kts (2 Bft) N-NO 24 0 min 0,0 UV-I 14 W/m 14,2 C 14,9 C 4,3 kts (2 Bft) 100,00 %
25.06.2019 05:26 15,2 C 93 % 1022,0 hPa 0,0 l/m 4,5 kts (2 Bft) N-NO 24 0 min 0,0 UV-I 14 W/m 14,1 C 14,2 C 5,2 kts (2 Bft) 100,00 %
25.06.2019 05:25 15,2 C 93 % 1022,0 hPa 0,0 l/m 4,0 kts (2 Bft) N-NO 24 0 min 0,0 UV-I 12 W/m 14,1 C 14,6 C 4,3 kts (2 Bft) 100,00 %
25.06.2019 05:24 15,1 C 94 % 1022,0 hPa 0,0 l/m 4,3 kts (2 Bft) N-NO 24 0 min 0,0 UV-I 12 W/m 14,1 C 14,3 C 5,2 kts (2 Bft) 100,00 %
25.06.2019 05:23 15,0 C 94 % 1021,9 hPa 0,0 l/m 4,0 kts (2 Bft) N-NO 24 0 min 0,0 UV-I 12 W/m 14,0 C 14,4 C 4,3 kts (2 Bft) 100,00 %
25.06.2019 05:22 14,9 C 93 % 1021,9 hPa 0,0 l/m 4,2 kts (2 Bft) N-NO 24 0 min 0,0 UV-I 12 W/m 13,8 C 14,1 C 5,2 kts (2 Bft) 100,00 %
25.06.2019 05:21 14,9 C 93 % 1022,0 hPa 0,0 l/m 4,3 kts (2 Bft) N-NO 24 0 min 0,0 UV-I 12 W/m 13,8 C 14,1 C 5,2 kts (2 Bft) 100,00 %
25.06.2019 05:20 15,0 C 93 % 1022,1 hPa 0,0 l/m 4,0 kts (2 Bft) N-NO 22 0 min 0,0 UV-I 11 W/m 13,9 C 14,4 C 4,3 kts (2 Bft) 100,00 %
25.06.2019 05:19 15,0 C 94 % 1022,0 hPa 0,0 l/m 4,0 kts (2 Bft) N-NO 22 0 min 0,0 UV-I 11 W/m 14,0 C 14,4 C 5,2 kts (2 Bft) 100,00 %
25.06.2019 05:18 14,9 C 93 % 1022,0 hPa 0,0 l/m 4,4 kts (2 Bft) N-NO 22 0 min 0,0 UV-I 11 W/m 13,8 C 13,9 C 5,2 kts (2 Bft) 100,00 %
25.06.2019 05:17 14,9 C 94 % 1022,1 hPa 0,0 l/m 3,8 kts (2 Bft) N-NO 22 0 min 0,0 UV-I 11 W/m 13,9 C 14,6 C 4,3 kts (2 Bft) 100,00 %
25.06.2019 05:16 14,7 C 95 % 1022,1 hPa 0,0 l/m 3,5 kts (2 Bft) N-NO 22 0 min 0,0 UV-I 11 W/m 13,9 C 14,7 C 4,3 kts (2 Bft) 100,00 %
25.06.2019 05:15 14,5 C 95 % 1022,0 hPa 0,0 l/m 3,4 kts (2 Bft) N-NO 22 0 min 0,0 UV-I 9 W/m 13,7 C 14,5 C 3,5 kts (2 Bft) 100,00 %
25.06.2019 05:14 14,4 C 95 % 1022,1 hPa 0,0 l/m 3,2 kts (2 Bft) N-NO 22 0 min 0,0 UV-I 9 W/m 13,6 C 14,4 C 4,3 kts (2 Bft) 100,00 %
25.06.2019 05:13 14,3 C 95 % 1022,1 hPa 0,0 l/m 3,6 kts (2 Bft) N-NO 22 0 min 0,0 UV-I 9 W/m 13,5 C 14,1 C 4,3 kts (2 Bft) 100,00 %
25.06.2019 05:12 14,2 C 95 % 1022,1 hPa 0,0 l/m 3,5 kts (2 Bft) N-NO 22 0 min 0,0 UV-I 9 W/m 13,4 C 14,2 C 4,3 kts (2 Bft) 100,00 %
25.06.2019 05:11 14,2 C 95 % 1022,1 hPa 0,0 l/m 3,8 kts (2 Bft) N-NO 22 0 min 0,0 UV-I 7 W/m 13,4 C 13,8 C 4,3 kts (2 Bft) 100,00 %
25.06.2019 05:10 14,2 C 95 % 1022,1 hPa 0,0 l/m 4,0 kts (2 Bft) N-NO 22 0 min 0,0 UV-I 7 W/m 13,4 C 13,6 C 4,3 kts (2 Bft) 95,83 %
25.06.2019 05:09 14,2 C 94 % 1022,1 hPa 0,0 l/m 2,9 kts (1 Bft) N-NO 22 0 min 0,0 UV-I 7 W/m 13,2 C 14,2 C 3,5 kts (2 Bft) 100,00 %
25.06.2019 05:08 14,2 C 94 % 1022,0 hPa 0,0 l/m 3,6 kts (2 Bft) N-NO 22 0 min 0,0 UV-I 7 W/m 13,2 C 14,1 C 4,3 kts (2 Bft) 100,00 %
25.06.2019 05:07 14,2 C 94 % 1022,1 hPa 0,0 l/m 3,9 kts (2 Bft) N-NO 22 0 min 0,0 UV-I 7 W/m 13,2 C 13,7 C 4,3 kts (2 Bft) 100,00 %
25.06.2019 05:06 14,2 C 94 % 1022,0 hPa 0,0 l/m 3,5 kts (2 Bft) N-NO 22 0 min 0,0 UV-I 5 W/m 13,2 C 14,2 C 4,3 kts (2 Bft) 100,00 %
25.06.2019 05:05 14,3 C 94 % 1022,0 hPa 0,0 l/m 3,3 kts (2 Bft) N-NO 22 0 min 0,0 UV-I 5 W/m 13,3 C 14,3 C 3,5 kts (2 Bft) 100,00 %
25.06.2019 05:04 14,3 C 95 % 1022,0 hPa 0,0 l/m 3,0 kts (1 Bft) N-NO 22 0 min 0,0 UV-I 5 W/m 13,5 C 14,3 C 4,3 kts (2 Bft) 100,00 %
25.06.2019 05:03 14,3 C 95 % 1022,1 hPa 0,0 l/m 3,2 kts (2 Bft) N-NO 22 0 min 0,0 UV-I 5 W/m 13,5 C 14,3 C 4,3 kts (2 Bft) 100,00 %
25.06.2019 05:02 14,2 C 95 % 1022,0 hPa 0,0 l/m 2,8 kts (1 Bft) N-NO 22 0 min 0,0 UV-I 5 W/m 13,4 C 14,2 C 3,5 kts (2 Bft) 100,00 %
25.06.2019 05:01 14,3 C 95 % 1022,0 hPa 0,0 l/m 3,5 kts (2 Bft) N-NO 22 0 min 0,0 UV-I 5 W/m 13,5 C 14,3 C 4,3 kts (2 Bft) 100,00 %
25.06.2019 05:00 14,3 C 94 % 1022,0 hPa 0,0 l/m 3,3 kts (2 Bft) N-NO 22 0 min 0,0 UV-I 0 W/m 13,3 C 14,3 C 3,5 kts (2 Bft) 100,00 %
25.06.2019 04:59 14,3 C 94 % 1022,0 hPa 0,0 l/m 3,2 kts (2 Bft) N-NO 22 0 min 0,0 UV-I 0 W/m 13,3 C 14,3 C 3,5 kts (2 Bft) 100,00 %
25.06.2019 04:58 14,3 C 94 % 1022,0 hPa 0,0 l/m 3,1 kts (1 Bft) N-NO 22 0 min 0,0 UV-I 0 W/m 13,3 C 14,3 C 3,5 kts (2 Bft) 100,00 %
25.06.2019 04:57 14,4 C 94 % 1022,0 hPa 0,0 l/m 3,1 kts (1 Bft) N-NO 22 0 min 0,0 UV-I 0 W/m 13,4 C 14,4 C 3,5 kts (2 Bft) 100,00 %
25.06.2019 04:56 14,5 C 94 % 1022,0 hPa 0,0 l/m 3,2 kts (2 Bft) N-NO 22 0 min 0,0 UV-I 0 W/m 13,5 C 14,5 C 3,5 kts (2 Bft) 100,00 %
25.06.2019 04:55 14,6 C 93 % 1022,0 hPa 0,0 l/m 3,1 kts (2 Bft) N-NO 22 0 min 0,0 UV-I 0 W/m 13,5 C 14,6 C 3,5 kts (2 Bft) 100,00 %
25.06.2019 04:54 14,6 C 93 % 1021,9 hPa 0,0 l/m 3,2 kts (2 Bft) N-NO 22 0 min 0,0 UV-I 0 W/m 13,5 C 14,6 C 3,5 kts (2 Bft) 99,56 %
25.06.2019 04:53 14,7 C 93 % 1022,0 hPa 0,0 l/m 2,6 kts (1 Bft) N-NO 22 0 min 0,0 UV-I 0 W/m 13,6 C 14,7 C 2,6 kts (1 Bft) 99,56 %
25.06.2019 04:51 14,9 C 92 % 1021,9 hPa 0,0 l/m 3,5 kts (2 Bft) N-NO 22 0 min 0,0 UV-I 0 W/m 13,6 C 14,9 C 3,5 kts (2 Bft) 99,56 %
25.06.2019 04:50 15,1 C 93 % 1021,8 hPa 0,0 l/m 3,1 kts (1 Bft) N-NO 22 0 min 0,0 UV-I 0 W/m 14,0 C 15,1 C 3,5 kts (2 Bft) 100,00 %
25.06.2019 04:49 15,1 C 92 % 1021,8 hPa 0,0 l/m 3,2 kts (2 Bft) N-NO 22 0 min 0,0 UV-I 0 W/m 13,8 C 15,1 C 3,5 kts (2 Bft) 100,00 %
25.06.2019 04:48 15,2 C 92 % 1021,9 hPa 0,0 l/m 3,2 kts (2 Bft) N-NO 22 0 min 0,0 UV-I 0 W/m 13,9 C 15,2 C 3,5 kts (2 Bft) 100,00 %
25.06.2019 04:47 15,3 C 92 % 1021,9 hPa 0,0 l/m 3,6 kts (2 Bft) N-NO 22 0 min 0,0 UV-I 0 W/m 14,0 C 15,1 C 4,3 kts (2 Bft) 100,00 %
25.06.2019 04:46 15,4 C 92 % 1021,8 hPa 0,0 l/m 3,7 kts (2 Bft) N-NO 22 0 min 0,0 UV-I 0 W/m 14,1 C 15,2 C 4,3 kts (2 Bft) 100,00 %
25.06.2019 04:45 15,4 C 92 % 1021,9 hPa 0,0 l/m 3,7 kts (2 Bft) N-NO 22 0 min 0,0 UV-I 0 W/m 14,1 C 15,1 C 4,3 kts (2 Bft) 100,00 %
25.06.2019 04:44 15,3 C 92 % 1021,8 hPa 0,0 l/m 3,5 kts (2 Bft) N-NO 22 0 min 0,0 UV-I 0 W/m 14,0 C 15,3 C 4,3 kts (2 Bft) 96,15 %
25.06.2019 04:43 15,3 C 92 % 1021,9 hPa 0,0 l/m 3,7 kts (2 Bft) N-NO 22 0 min 0,0 UV-I 0 W/m 14,0 C 15,0 C 4,3 kts (2 Bft) 100,00 %
25.06.2019 04:42 15,3 C 92 % 1021,9 hPa 0,0 l/m 3,9 kts (2 Bft) N-NO 22 0 min 0,0 UV-I 0 W/m 14,0 C 14,9 C 4,3 kts (2 Bft) 100,00 %
25.06.2019 04:41 15,3 C 92 % 1021,9 hPa 0,0 l/m 4,0 kts (2 Bft) N-NO 22 0 min 0,0 UV-I 0 W/m 14,0 C 14,7 C 4,3 kts (2 Bft) 100,00 %
25.06.2019 04:40 15,3 C 92 % 1021,9 hPa 0,0 l/m 3,9 kts (2 Bft) N-NO 22 0 min 0,0 UV-I 0 W/m 14,0 C 14,9 C 4,3 kts (2 Bft) 100,00 %
25.06.2019 04:39 15,3 C 92 % 1021,9 hPa 0,0 l/m 4,0 kts (2 Bft) N-NO 22 0 min 0,0 UV-I 0 W/m 14,0 C 14,7 C 4,3 kts (2 Bft) 100,00 %
25.06.2019 04:38 15,4 C 92 % 1021,9 hPa 0,0 l/m 4,0 kts (2 Bft) N-NO 22 0 min 0,0 UV-I 0 W/m 14,1 C 14,8 C 4,3 kts (2 Bft) 96,30 %
25.06.2019 04:37 15,4 C 92 % 1022,0 hPa 0,0 l/m 3,8 kts (2 Bft) N-NO 22 0 min 0,0 UV-I 0 W/m 14,1 C 15,0 C 4,3 kts (2 Bft) 100,00 %
25.06.2019 04:36 15,3 C 92 % 1021,9 hPa 0,0 l/m 3,6 kts (2 Bft) N-NO 22 0 min 0,0 UV-I 0 W/m 14,0 C 15,1 C 4,3 kts (2 Bft) 100,00 %
25.06.2019 04:35 15,4 C 91 % 1021,9 hPa 0,0 l/m 3,6 kts (2 Bft) N-NO 22 0 min 0,0 UV-I 0 W/m 13,9 C 15,2 C 4,3 kts (2 Bft) 100,00 %
25.06.2019 04:34 15,5 C 92 % 1021,9 hPa 0,0 l/m 3,6 kts (2 Bft) N-NO 22 0 min 0,0 UV-I 0 W/m 14,2 C 15,4 C 4,3 kts (2 Bft) 100,00 %
25.06.2019 04:33 15,6 C 92 % 1021,9 hPa 0,0 l/m 3,9 kts (2 Bft) N-NO 22 0 min 0,0 UV-I 0 W/m 14,3 C 15,2 C 4,3 kts (2 Bft) 100,00 %
25.06.2019 04:32 15,5 C 92 % 1021,9 hPa 0,0 l/m 3,5 kts (2 Bft) N-NO 22 0 min 0,0 UV-I 0 W/m 14,2 C 15,5 C 3,5 kts (2 Bft) 99,56 %
25.06.2019 04:31 15,6 C 92 % 1021,8 hPa 0,0 l/m 3,5 kts (2 Bft) N-NO 22 0 min 0,0 UV-I 0 W/m 14,3 C 15,6 C 3,5 kts (2 Bft) 99,56 %
25.06.2019 04:30 15,6 C 92 % 1021,8 hPa 0,0 l/m 4,3 kts (2 Bft) N-NO 22 0 min 0,0 UV-I 0 W/m 14,3 C 14,8 C 4,3 kts (2 Bft) 100,00 %
25.06.2019 04:29 15,7 C 91 % 1021,8 hPa 0,0 l/m 3,9 kts (2 Bft) N-NO 22 0 min 0,0 UV-I 0 W/m 14,2 C 15,3 C 4,3 kts (2 Bft) 99,53 %
25.06.2019 04:28 15,7 C 91 % 1021,8 hPa 0,0 l/m 4,2 kts (2 Bft) N-NO 22 0 min 0,0 UV-I 0 W/m 14,2 C 14,9 C 5,2 kts (2 Bft) 100,00 %
25.06.2019 04:27 15,7 C 92 % 1021,8 hPa 0,0 l/m 3,8 kts (2 Bft) N-NO 22 0 min 0,0 UV-I 0 W/m 14,4 C 15,4 C 4,3 kts (2 Bft) 100,00 %
25.06.2019 04:26 15,7 C 92 % 1021,8 hPa 0,0 l/m 4,0 kts (2 Bft) N-NO 22 0 min 0,0 UV-I 0 W/m 14,4 C 15,2 C 5,2 kts (2 Bft) 96,30 %
25.06.2019 04:25 15,6 C 92 % 1021,8 hPa 0,0 l/m 4,2 kts (2 Bft) N-NO 22 0 min 0,0 UV-I 0 W/m 14,3 C 14,9 C 4,3 kts (2 Bft) 100,00 %
25.06.2019 04:24 15,6 C 92 % 1021,9 hPa 0,0 l/m 4,3 kts (2 Bft) N-NO 22 0 min 0,0 UV-I 0 W/m 14,3 C 14,8 C 5,2 kts (2 Bft) 100,00 %
25.06.2019 04:23 15,6 C 91 % 1021,8 hPa 0,0 l/m 4,2 kts (2 Bft) N-NO 22 0 min 0,0 UV-I 0 W/m 14,1 C 14,8 C 4,3 kts (2 Bft) 100,00 %
25.06.2019 04:22 15,6 C 92 % 1022,0 hPa 0,0 l/m 4,4 kts (2 Bft) N-NO 22 0 min 0,0 UV-I 0 W/m 14,3 C 14,6 C 5,2 kts (2 Bft) 100,00 %
25.06.2019 04:21 15,7 C 92 % 1022,0 hPa 0,0 l/m 4,2 kts (2 Bft) N-NO 22 0 min 0,0 UV-I 0 W/m 14,4 C 14,9 C 5,2 kts (2 Bft) 100,00 %
25.06.2019 04:20 15,6 C 92 % 1021,9 hPa 0,0 l/m 3,9 kts (2 Bft) N-NO 22 0 min 0,0 UV-I 0 W/m 14,3 C 15,2 C 4,3 kts (2 Bft) 100,00 %
25.06.2019 04:19 15,6 C 92 % 1021,9 hPa 0,0 l/m 4,1 kts (2 Bft) N-NO 22 0 min 0,0 UV-I 0 W/m 14,3 C 14,9 C 4,3 kts (2 Bft) 100,00 %
25.06.2019 04:18 15,6 C 92 % 1021,9 hPa 0,0 l/m 4,3 kts (2 Bft) N-NO 22 0 min 0,0 UV-I 0 W/m 14,3 C 14,7 C 5,2 kts (2 Bft) 100,00 %
25.06.2019 04:17 15,5 C 92 % 1021,9 hPa 0,0 l/m 4,3 kts (2 Bft) N-NO 22 0 min 0,0 UV-I 0 W/m 14,2 C 14,6 C 5,2 kts (2 Bft) 100,00 %
25.06.2019 04:16 15,4 C 93 % 1021,9 hPa 0,0 l/m 4,3 kts (2 Bft) N-NO 22 0 min 0,0 UV-I 0 W/m 14,3 C 14,6 C 5,2 kts (2 Bft) 100,00 %
25.06.2019 04:15 15,4 C 93 % 1021,9 hPa 0,0 l/m 4,2 kts (2 Bft) N-NO 22 0 min 0,0 UV-I 0 W/m 14,3 C 14,6 C 4,3 kts (2 Bft) 100,00 %
25.06.2019 04:14 15,3 C 93 % 1021,9 hPa 0,0 l/m 4,5 kts (2 Bft) N-NO 22 0 min 0,0 UV-I 0 W/m 14,2 C 14,3 C 5,2 kts (2 Bft) 100,00 %
25.06.2019 04:13 15,3 C 93 % 1021,9 hPa 0,0 l/m 4,6 kts (2 Bft) N-NO 22 0 min 0,0 UV-I 0 W/m 14,2 C 14,1 C 5,2 kts (2 Bft) 100,00 %
25.06.2019 04:12 15,3 C 93 % 1021,9 hPa 0,0 l/m 4,4 kts (2 Bft) N-NO 22 0 min 0,0 UV-I 0 W/m 14,2 C 14,4 C 5,2 kts (2 Bft) 100,00 %
25.06.2019 04:11 15,3 C 93 % 1021,9 hPa 0,0 l/m 4,3 kts (2 Bft) N-NO 22 0 min 0,0 UV-I 0 W/m 14,2 C 14,4 C 4,3 kts (2 Bft) 100,00 %
25.06.2019 04:10 15,3 C 93 % 1022,0 hPa 0,0 l/m 4,3 kts (2 Bft) N-NO 22 0 min 0,0 UV-I 0 W/m 14,2 C 14,4 C 5,2 kts (2 Bft) 100,00 %
25.06.2019 04:09 15,4 C 92 % 1022,0 hPa 0,0 l/m 4,2 kts (2 Bft) N-NO 22 0 min 0,0 UV-I 0 W/m 14,1 C 14,7 C 4,3 kts (2 Bft) 100,00 %
25.06.2019 04:08 15,4 C 92 % 1021,9 hPa 0,0 l/m 3,8 kts (2 Bft) N-NO 22 0 min 0,0 UV-I 0 W/m 14,1 C 15,1 C 4,3 kts (2 Bft) 100,00 %
25.06.2019 04:07 15,4 C 92 % 1021,9 hPa 0,0 l/m 4,0 kts (2 Bft) N-NO 22 0 min 0,0 UV-I 0 W/m 14,1 C 14,8 C 4,3 kts (2 Bft) 100,00 %
25.06.2019 04:06 15,4 C 92 % 1021,9 hPa 0,0 l/m 4,1 kts (2 Bft) N-NO 22 0 min 0,0 UV-I 0 W/m 14,1 C 14,7 C 4,3 kts (2 Bft) 95,65 %
25.06.2019 04:05 15,4 C 92 % 1022,0 hPa 0,0 l/m 4,2 kts (2 Bft) N-NO 22 0 min 0,0 UV-I 0 W/m 14,1 C 14,7 C 4,3 kts (2 Bft) 100,00 %
25.06.2019 04:04 15,4 C 92 % 1022,0 hPa 0,0 l/m 4,1 kts (2 Bft) N-NO 22 0 min 0,0 UV-I 0 W/m 14,1 C 14,7 C 4,3 kts (2 Bft) 100,00 %
25.06.2019 04:03 15,5 C 93 % 1022,0 hPa 0,0 l/m 4,2 kts (2 Bft) N-NO 22 0 min 0,0 UV-I 0 W/m 14,4 C 14,7 C 5,2 kts (2 Bft) 100,00 %
25.06.2019 04:02 15,4 C 93 % 1022,0 hPa 0,0 l/m 4,3 kts (2 Bft) N-NO 22 0 min 0,0 UV-I 0 W/m 14,3 C 14,5 C 4,3 kts (2 Bft) 95,65 %
25.06.2019 04:01 15,3 C 93 % 1021,9 hPa 0,0 l/m 4,4 kts (2 Bft) N-NO 22 0 min 0,0 UV-I 0 W/m 14,2 C 14,4 C 5,2 kts (2 Bft) 100,00 %
25.06.2019 04:00 15,2 C 93 % 1022,0 hPa 0,0 l/m 4,2 kts (2 Bft) N-NO 22 0 min 0,0 UV-I 0 W/m 14,1 C 14,4 C 4,3 kts (2 Bft) 100,00 %
25.06.2019 03:59 15,2 C 94 % 1022,0 hPa 0,0 l/m 4,3 kts (2 Bft) N-NO 22 0 min 0,0 UV-I 0 W/m 14,2 C 14,3 C 4,3 kts (2 Bft) 100,00 %
25.06.2019 03:58 15,1 C 94 % 1022,0 hPa 0,0 l/m 4,2 kts (2 Bft) N-NO 22 0 min 0,0 UV-I 0 W/m 14,1 C 14,3 C 4,3 kts (2 Bft) 100,00 %
25.06.2019 03:57 15,0 C 94 % 1022,0 hPa 0,0 l/m 4,2 kts (2 Bft) N-NO 22 0 min 0,0 UV-I 0 W/m 14,0 C 14,2 C 4,3 kts (2 Bft) 95,65 %
25.06.2019 03:56 14,9 C 94 % 1022,0 hPa 0,0 l/m 4,2 kts (2 Bft) N-NO 22 0 min 0,0 UV-I 0 W/m 13,9 C 14,1 C 4,3 kts (2 Bft) 100,00 %
25.06.2019 03:55 14,9 C 94 % 1022,0 hPa 0,0 l/m 4,3 kts (2 Bft) N-NO 22 0 min 0,0 UV-I 0 W/m 13,9 C 14,1 C 4,3 kts (2 Bft) 100,00 %
25.06.2019 03:54 14,8 C 94 % 1022,1 hPa 0,0 l/m 4,2 kts (2 Bft) N-NO 22 0 min 0,0 UV-I 0 W/m 13,8 C 14,0 C 4,3 kts (2 Bft) 95,65 %
25.06.2019 03:53 14,7 C 94 % 1022,0 hPa 0,0 l/m 4,0 kts (2 Bft) N-NO 22 0 min 0,0 UV-I 0 W/m 13,7 C 14,1 C 4,3 kts (2 Bft) 100,00 %
25.06.2019 03:52 14,7 C 95 % 1022,1 hPa 0,0 l/m 3,9 kts (2 Bft) N-NO 22 0 min 0,0 UV-I 0 W/m 13,9 C 14,2 C 4,3 kts (2 Bft) 95,65 %
25.06.2019 03:51 14,7 C 94 % 1022,0 hPa 0,0 l/m 3,8 kts (2 Bft) N-NO 22 0 min 0,0 UV-I 0 W/m 13,7 C 14,4 C 4,3 kts (2 Bft) 95,65 %
25.06.2019 03:50 14,6 C 94 % 1022,0 hPa 0,0 l/m 4,1 kts (2 Bft) N-NO 22 0 min 0,0 UV-I 0 W/m 13,6 C 13,9 C 4,3 kts (2 Bft) 95,83 %
25.06.2019 03:49 14,7 C 94 % 1022,1 hPa 0,0 l/m 3,9 kts (2 Bft) N-NO 22 0 min 0,0 UV-I 0 W/m 13,7 C 14,2 C 4,3 kts (2 Bft) 95,65 %
25.06.2019 03:48 14,7 C 94 % 1022,2 hPa 0,0 l/m 3,8 kts (2 Bft) N-NO 22 0 min 0,0 UV-I 0 W/m 13,7 C 14,4 C 4,3 kts (2 Bft) 95,83 %
25.06.2019 03:47 14,8 C 94 % 1022,1 hPa 0,0 l/m 3,8 kts (2 Bft) N-NO 22 0 min 0,0 UV-I 0 W/m 13,8 C 14,5 C 4,3 kts (2 Bft) 95,65 %
25.06.2019 03:46 14,8 C 93 % 1022,1 hPa 0,0 l/m 3,8 kts (2 Bft) N-NO 22 0 min 0,0 UV-I 0 W/m 13,7 C 14,5 C 4,3 kts (2 Bft) 100,00 %
25.06.2019 03:45 14,9 C 93 % 1022,2 hPa 0,0 l/m 3,9 kts (2 Bft) N-NO 22 0 min 0,0 UV-I 0 W/m 13,8 C 14,4 C 4,3 kts (2 Bft) 95,83 %
25.06.2019 03:44 14,9 C 93 % 1022,1 hPa 0,0 l/m 4,0 kts (2 Bft) N-NO 22 0 min 0,0 UV-I 0 W/m 13,8 C 14,3 C 4,3 kts (2 Bft) 100,00 %
25.06.2019 03:43 14,9 C 93 % 1022,2 hPa 0,0 l/m 3,7 kts (2 Bft) N-NO 22 0 min 0,0 UV-I 0 W/m 13,8 C 14,7 C 4,3 kts (2 Bft) 95,83 %
25.06.2019 03:42 14,9 C 94 % 1022,2 hPa 0,0 l/m 3,8 kts (2 Bft) N-NO 22 0 min 0,0 UV-I 0 W/m 13,9 C 14,6 C 4,3 kts (2 Bft) 100,00 %
25.06.2019 03:41 14,9 C 94 % 1022,2 hPa 0,0 l/m 3,9 kts (2 Bft) N-NO 22 0 min 0,0 UV-I 0 W/m 13,9 C 14,4 C 4,3 kts (2 Bft) 97,56 %
25.06.2019 03:40 14,8 C 94 % 1022,2 hPa 0,0 l/m 3,9 kts (2 Bft) N-NO 22 0 min 0,0 UV-I 0 W/m 13,8 C 14,3 C 4,3 kts (2 Bft) 98,98 %
25.06.2019 03:39 14,8 C 94 % 1022,2 hPa 0,0 l/m 4,0 kts (2 Bft) N-NO 22 0 min 0,0 UV-I 0 W/m 13,8 C 14,2 C 4,3 kts (2 Bft) 96,00 %
25.06.2019 03:38 14,8 C 94 % 1022,2 hPa 0,0 l/m 3,9 kts (2 Bft) N-NO 22 0 min 0,0 UV-I 0 W/m 13,8 C 14,3 C 4,3 kts (2 Bft) 99,01 %
25.06.2019 03:37 14,9 C 94 % 1022,2 hPa 0,0 l/m 4,0 kts (2 Bft) N-NO 22 0 min 0,0 UV-I 0 W/m 13,9 C 14,3 C 4,3 kts (2 Bft) 100,00 %
25.06.2019 03:36 14,9 C 94 % 1022,1 hPa 0,0 l/m 3,6 kts (2 Bft) N-NO 22 0 min 0,0 UV-I 0 W/m 13,9 C 14,7 C 4,3 kts (2 Bft) 97,87 %
25.06.2019 03:35 14,9 C 94 % 1022,2 hPa 0,0 l/m 3,8 kts (2 Bft) N-NO 22 0 min 0,0 UV-I 0 W/m 13,9 C 14,5 C 4,3 kts (2 Bft) 99,02 %
25.06.2019 03:34 14,9 C 94 % 1022,2 hPa 0,0 l/m 3,8 kts (2 Bft) N-NO 22 0 min 0,0 UV-I 0 W/m 13,9 C 14,6 C 4,3 kts (2 Bft) 96,67 %
25.06.2019 03:33 14,9 C 94 % 1022,2 hPa 0,0 l/m 3,5 kts (2 Bft) N-NO 22 0 min 0,0 UV-I 0 W/m 13,9 C 14,9 C 4,3 kts (2 Bft) 100,00 %
25.06.2019 03:32 15,0 C 94 % 1022,2 hPa 0,0 l/m 4,0 kts (2 Bft) N-NO 22 0 min 0,0 UV-I 0 W/m 14,0 C 14,4 C 4,3 kts (2 Bft) 96,55 %
25.06.2019 03:31 15,1 C 93 % 1022,2 hPa 0,0 l/m 3,9 kts (2 Bft) N-NO 22 0 min 0,0 UV-I 0 W/m 14,0 C 14,6 C 4,3 kts (2 Bft) 100,00 %
25.06.2019 03:30 15,2 C 93 % 1022,2 hPa 0,0 l/m 3,8 kts (2 Bft) N-NO 22 0 min 0,0 UV-I 0 W/m 14,1 C 14,8 C 4,3 kts (2 Bft) 96,15 %
25.06.2019 03:29 15,3 C 92 % 1022,2 hPa 0,0 l/m 4,0 kts (2 Bft) N-NO 22 0 min 0,0 UV-I 0 W/m 14,0 C 14,7 C 5,2 kts (2 Bft) 96,88 %
25.06.2019 03:28 15,4 C 92 % 1022,2 hPa 0,0 l/m 4,0 kts (2 Bft) N-NO 22 0 min 0,0 UV-I 0 W/m 14,1 C 14,8 C 4,3 kts (2 Bft) 100,00 %
25.06.2019 03:27 15,5 C 92 % 1022,2 hPa 0,0 l/m 3,9 kts (2 Bft) N-NO 22 0 min 0,0 UV-I 0 W/m 14,2 C 15,1 C 4,3 kts (2 Bft) 96,55 %
25.06.2019 03:26 15,5 C 93 % 1022,2 hPa 0,0 l/m 4,3 kts (2 Bft) N-NO 22 0 min 0,0 UV-I 0 W/m 14,4 C 14,7 C 5,2 kts (2 Bft) 100,00 %
25.06.2019 03:25 15,4 C 92 % 1022,2 hPa 0,0 l/m 4,1 kts (2 Bft) N-NO 22 0 min 0,0 UV-I 0 W/m 14,1 C 14,7 C 5,2 kts (2 Bft) 96,15 %
25.06.2019 03:24 15,4 C 93 % 1022,2 hPa 0,0 l/m 4,3 kts (2 Bft) N-NO 18 0 min 0,0 UV-I 0 W/m 14,3 C 14,5 C 6,1 kts (2 Bft) 100,00 %
25.06.2019 03:23 15,4 C 93 % 1022,2 hPa 0,0 l/m 4,2 kts (2 Bft) N-NO 16 0 min 0,0 UV-I 0 W/m 14,3 C 14,7 C 4,3 kts (2 Bft) 96,15 %
25.06.2019 03:22 15,4 C 93 % 1022,2 hPa 0,0 l/m 4,6 kts (2 Bft) N-NO 16 0 min 0,0 UV-I 0 W/m 14,3 C 14,2 C 6,1 kts (2 Bft) 96,15 %
25.06.2019 03:21 15,3 C 94 % 1022,2 hPa 0,0 l/m 4,3 kts (2 Bft) N-NO 15 0 min 0,0 UV-I 0 W/m 14,3 C 14,4 C 6,1 kts (2 Bft) 100,00 %
25.06.2019 03:20 15,3 C 93 % 1022,2 hPa 0,0 l/m 4,2 kts (2 Bft) N-NO 15 0 min 0,0 UV-I 0 W/m 14,2 C 14,5 C 4,3 kts (2 Bft) 93,33 %
25.06.2019 03:19 15,2 C 94 % 1022,2 hPa 0,0 l/m 4,2 kts (2 Bft) N-NO 15 0 min 0,0 UV-I 0 W/m 14,2 C 14,4 C 4,3 kts (2 Bft) 100,00 %
25.06.2019 03:18 15,2 C 94 % 1022,2 hPa 0,0 l/m 4,0 kts (2 Bft) N-NO 15 0 min 0,0 UV-I 0 W/m 14,2 C 14,6 C 4,3 kts (2 Bft) 95,65 %
25.06.2019 03:17 15,1 C 94 % 1022,3 hPa 0,0 l/m 3,6 kts (2 Bft) N-NO 15 0 min 0,0 UV-I 0 W/m 14,1 C 15,0 C 4,3 kts (2 Bft) 100,00 %
25.06.2019 03:16 15,1 C 94 % 1022,2 hPa 0,0 l/m 4,1 kts (2 Bft) N-NO 15 0 min 0,0 UV-I 0 W/m 14,1 C 14,4 C 4,3 kts (2 Bft) 100,00 %
25.06.2019 03:15 15,1 C 94 % 1022,2 hPa 0,0 l/m 3,7 kts (2 Bft) N-NO 15 0 min 0,0 UV-I 0 W/m 14,1 C 14,8 C 4,3 kts (2 Bft) 100,00 %
25.06.2019 03:14 15,0 C 94 % 1022,2 hPa 0,0 l/m 3,7 kts (2 Bft) N-NO 15 0 min 0,0 UV-I 0 W/m 14,0 C 14,7 C 4,3 kts (2 Bft) 100,00 %
25.06.2019 03:13 15,0 C 94 % 1022,3 hPa 0,0 l/m 3,3 kts (2 Bft) N-NO 15 0 min 0,0 UV-I 0 W/m 14,0 C 15,0 C 3,5 kts (2 Bft) 100,00 %
25.06.2019 03:12 15,0 C 94 % 1022,3 hPa 0,0 l/m 3,3 kts (2 Bft) N-NO 15 0 min 0,0 UV-I 0 W/m 14,0 C 15,0 C 4,3 kts (2 Bft) 100,00 %
25.06.2019 03:11 15,1 C 94 % 1022,3 hPa 0,0 l/m 3,3 kts (2 Bft) N-NO 15 0 min 0,0 UV-I 0 W/m 14,1 C 15,1 C 4,3 kts (2 Bft) 100,00 %
25.06.2019 03:10 15,1 C 94 % 1022,3 hPa 0,0 l/m 3,5 kts (2 Bft) N-NO 15 0 min 0,0 UV-I 0 W/m 14,1 C 15,1 C 4,3 kts (2 Bft) 96,55 %
25.06.2019 03:09 15,2 C 93 % 1022,3 hPa 0,0 l/m 3,6 kts (2 Bft) N-NO 15 0 min 0,0 UV-I 0 W/m 14,1 C 15,0 C 4,3 kts (2 Bft) 100,00 %
25.06.2019 03:08 15,2 C 93 % 1022,3 hPa 0,0 l/m 3,5 kts (2 Bft) N-NO 15 0 min 0,0 UV-I 0 W/m 14,1 C 15,2 C 3,5 kts (2 Bft) 100,00 %
25.06.2019 03:07 15,2 C 93 % 1022,3 hPa 0,0 l/m 3,6 kts (2 Bft) N-NO 15 0 min 0,0 UV-I 0 W/m 14,1 C 15,0 C 4,3 kts (2 Bft) 94,44 %
25.06.2019 03:06 15,3 C 93 % 1022,3 hPa 0,0 l/m 3,5 kts (2 Bft) N-NO 15 0 min 0,0 UV-I 0 W/m 14,2 C 15,3 C 4,3 kts (2 Bft) 100,00 %
25.06.2019 03:05 15,4 C 93 % 1022,3 hPa 0,0 l/m 3,7 kts (2 Bft) N-NO 15 0 min 0,0 UV-I 0 W/m 14,3 C 15,1 C 4,3 kts (2 Bft) 100,00 %
25.06.2019 03:04 15,4 C 92 % 1022,3 hPa 0,0 l/m 3,5 kts (2 Bft) N-NO 15 0 min 0,0 UV-I 0 W/m 14,1 C 15,4 C 4,3 kts (2 Bft) 99,14 %
25.06.2019 03:03 15,5 C 92 % 1022,3 hPa 0,0 l/m 3,4 kts (2 Bft) N-NO 15 0 min 0,0 UV-I 0 W/m 14,2 C 15,5 C 3,5 kts (2 Bft) 100,00 %
25.06.2019 03:02 15,6 C 92 % 1022,3 hPa 0,0 l/m 3,5 kts (2 Bft) N-NO 15 0 min 0,0 UV-I 0 W/m 14,3 C 15,6 C 4,3 kts (2 Bft) 100,00 %
25.06.2019 03:01 15,6 C 92 % 1022,3 hPa 0,0 l/m 3,3 kts (2 Bft) N-NO 15 0 min 0,0 UV-I 0 W/m 14,3 C 15,6 C 3,5 kts (2 Bft) 100,00 %
25.06.2019 03:00 15,6 C 92 % 1022,3 hPa 0,0 l/m 3,4 kts (2 Bft) N-NO 15 0 min 0,0 UV-I 0 W/m 14,3 C 15,6 C 3,5 kts (2 Bft) 100,00 %
25.06.2019 02:59 15,6 C 93 % 1022,3 hPa 0,0 l/m 3,5 kts (2 Bft) N-NO 15 0 min 0,0 UV-I 0 W/m 14,5 C 15,6 C 4,3 kts (2 Bft) 100,00 %
25.06.2019 02:58 15,5 C 93 % 1022,3 hPa 0,0 l/m 3,4 kts (2 Bft) N-NO 15 0 min 0,0 UV-I 0 W/m 14,4 C 15,5 C 3,5 kts (2 Bft) 100,00 %
25.06.2019 02:57 15,5 C 93 % 1022,4 hPa 0,0 l/m 3,9 kts (2 Bft) N-NO 28 0 min 0,0 UV-I 0 W/m 14,4 C 15,1 C 4,3 kts (2 Bft) 100,00 %
25.06.2019 02:56 15,5 C 93 % 1022,3 hPa 0,0 l/m 3,8 kts (2 Bft) N-NO 28 0 min 0,0 UV-I 0 W/m 14,4 C 15,2 C 4,3 kts (2 Bft) 100,00 %
25.06.2019 02:55 15,4 C 93 % 1022,3 hPa 0,0 l/m 3,6 kts (2 Bft) N-NO 28 0 min 0,0 UV-I 0 W/m 14,3 C 15,2 C 4,3 kts (2 Bft) 100,00 %
25.06.2019 02:54 15,4 C 93 % 1022,4 hPa 0,0 l/m 3,9 kts (2 Bft) N-NO 28 0 min 0,0 UV-I 0 W/m 14,3 C 15,0 C 4,3 kts (2 Bft) 100,00 %
25.06.2019 02:53 15,4 C 93 % 1022,4 hPa 0,0 l/m 3,7 kts (2 Bft) N-NO 28 0 min 0,0 UV-I 0 W/m 14,3 C 15,1 C 4,3 kts (2 Bft) 100,00 %
25.06.2019 02:52 15,4 C 93 % 1022,4 hPa 0,0 l/m 3,7 kts (2 Bft) N-NO 28 0 min 0,0 UV-I 0 W/m 14,3 C 15,1 C 4,3 kts (2 Bft) 100,00 %
25.06.2019 02:51 15,5 C 92 % 1022,4 hPa 0,0 l/m 3,6 kts (2 Bft) N-NO 28 0 min 0,0 UV-I 0 W/m 14,2 C 15,3 C 4,3 kts (2 Bft) 100,00 %
25.06.2019 02:50 15,5 C 93 % 1022,4 hPa 0,0 l/m 3,6 kts (2 Bft) N-NO 28 0 min 0,0 UV-I 0 W/m 14,4 C 15,4 C 4,3 kts (2 Bft) 100,00 %
25.06.2019 02:49 15,5 C 93 % 1022,4 hPa 0,0 l/m 3,7 kts (2 Bft) N-NO 28 0 min 0,0 UV-I 0 W/m 14,4 C 15,2 C 4,3 kts (2 Bft) 100,00 %
25.06.2019 02:48 15,6 C 93 % 1022,4 hPa 0,0 l/m 3,8 kts (2 Bft) N-NO 28 0 min 0,0 UV-I 0 W/m 14,5 C 15,2 C 4,3 kts (2 Bft) 100,00 %
25.06.2019 02:47 15,6 C 93 % 1022,4 hPa 0,0 l/m 3,7 kts (2 Bft) N-NO 28 0 min 0,0 UV-I 0 W/m 14,5 C 15,4 C 4,3 kts (2 Bft) 95,65 %
25.06.2019 02:46 15,5 C 93 % 1022,4 hPa 0,0 l/m 4,0 kts (2 Bft) N-NO 28 0 min 0,0 UV-I 0 W/m 14,4 C 14,9 C 4,3 kts (2 Bft) 100,00 %
25.06.2019 02:45 15,5 C 93 % 1022,4 hPa 0,0 l/m 3,8 kts (2 Bft) N-NO 28 0 min 0,0 UV-I 0 W/m 14,4 C 15,2 C 4,3 kts (2 Bft) 100,00 %
25.06.2019 02:44 15,4 C 93 % 1022,4 hPa 0,0 l/m 4,1 kts (2 Bft) N-NO 28 0 min 0,0 UV-I 0 W/m 14,3 C 14,7 C 4,3 kts (2 Bft) 95,65 %
25.06.2019 02:43 15,4 C 94 % 1022,4 hPa 0,0 l/m 3,7 kts (2 Bft) N-NO 28 0 min 0,0 UV-I 0 W/m 14,4 C 15,1 C 4,3 kts (2 Bft) 100,00 %
25.06.2019 02:42 15,3 C 94 % 1022,4 hPa 0,0 l/m 3,8 kts (2 Bft) N-NO 28 0 min 0,0 UV-I 0 W/m 14,3 C 14,9 C 4,3 kts (2 Bft) 100,00 %
25.06.2019 02:41 15,2 C 94 % 1022,4 hPa 0,0 l/m 3,7 kts (2 Bft) N-NO 28 0 min 0,0 UV-I 0 W/m 14,2 C 15,0 C 4,3 kts (2 Bft) 95,83 %
25.06.2019 02:40 15,2 C 94 % 1022,4 hPa 0,0 l/m 3,8 kts (2 Bft) N-NO 28 0 min 0,0 UV-I 0 W/m 14,2 C 14,9 C 4,3 kts (2 Bft) 100,00 %
25.06.2019 02:39 15,2 C 93 % 1022,5 hPa 0,0 l/m 3,6 kts (2 Bft) N-NO 28 0 min 0,0 UV-I 0 W/m 14,1 C 15,0 C 4,3 kts (2 Bft) 100,00 %
25.06.2019 02:38 15,3 C 93 % 1022,5 hPa 0,0 l/m 3,7 kts (2 Bft) N-NO 28 0 min 0,0 UV-I 0 W/m 14,2 C 15,0 C 4,3 kts (2 Bft) 100,00 %
25.06.2019 02:37 15,3 C 93 % 1022,4 hPa 0,0 l/m 3,6 kts (2 Bft) N-NO 28 0 min 0,0 UV-I 0 W/m 14,2 C 15,1 C 4,3 kts (2 Bft) 100,00 %
25.06.2019 02:36 15,3 C 93 % 1022,4 hPa 0,0 l/m 3,6 kts (2 Bft) N-NO 28 0 min 0,0 UV-I 0 W/m 14,2 C 15,1 C 4,3 kts (2 Bft) 100,00 %
25.06.2019 02:35 15,4 C 92 % 1022,4 hPa 0,0 l/m 3,3 kts (2 Bft) N-NO 28 0 min 0,0 UV-I 0 W/m 14,1 C 15,4 C 3,5 kts (2 Bft) 100,00 %
25.06.2019 02:34 15,5 C 92 % 1022,5 hPa 0,0 l/m 3,3 kts (2 Bft) N-NO 28 0 min 0,0 UV-I 0 W/m 14,2 C 15,5 C 4,3 kts (2 Bft) 100,00 %
25.06.2019 02:33 15,6 C 92 % 1022,4 hPa 0,0 l/m 3,7 kts (2 Bft) N-NO 28 0 min 0,0 UV-I 0 W/m 14,3 C 15,3 C 4,3 kts (2 Bft) 100,00 %
25.06.2019 02:32 15,7 C 91 % 1022,5 hPa 0,0 l/m 3,2 kts (2 Bft) N-NO 28 0 min 0,0 UV-I 0 W/m 14,2 C 15,7 C 3,5 kts (2 Bft) 100,00 %
25.06.2019 02:31 15,8 C 91 % 1022,4 hPa 0,0 l/m 4,0 kts (2 Bft) N-NO 28 0 min 0,0 UV-I 0 W/m 14,3 C 15,3 C 5,2 kts (2 Bft) 100,00 %
25.06.2019 02:30 15,9 C 92 % 1022,4 hPa 0,0 l/m 4,3 kts (2 Bft) N-NO 24 0 min 0,0 UV-I 0 W/m 14,6 C 15,1 C 5,2 kts (2 Bft) 100,00 %
25.06.2019 02:29 15,9 C 92 % 1022,4 hPa 0,0 l/m 4,9 kts (2 Bft) N-NO 28 0 min 0,0 UV-I 0 W/m 14,6 C 14,5 C 7,8 kts (3 Bft) 100,00 %
25.06.2019 02:28 15,9 C 92 % 1022,5 hPa 0,0 l/m 4,3 kts (2 Bft) N-NO 31 0 min 0,0 UV-I 0 W/m 14,6 C 15,1 C 5,2 kts (2 Bft) 100,00 %
25.06.2019 02:27 15,9 C 92 % 1022,5 hPa 0,0 l/m 4,3 kts (2 Bft) N-NO 24 0 min 0,0 UV-I 0 W/m 14,6 C 15,1 C 5,2 kts (2 Bft) 100,00 %
25.06.2019 02:26 15,8 C 93 % 1022,5 hPa 0,0 l/m 3,6 kts (2 Bft) N-NO 24 0 min 0,0 UV-I 0 W/m 14,7 C 15,6 C 4,3 kts (2 Bft) 95,83 %
25.06.2019 02:25 15,8 C 93 % 1022,5 hPa 0,0 l/m 4,4 kts (2 Bft) N-NO 24 0 min 0,0 UV-I 0 W/m 14,7 C 14,9 C 5,2 kts (2 Bft) 100,00 %
25.06.2019 02:24 15,7 C 93 % 1022,5 hPa 0,0 l/m 3,8 kts (2 Bft) N-NO 24 0 min 0,0 UV-I 0 W/m 14,6 C 15,4 C 4,3 kts (2 Bft) 100,00 %
25.06.2019 02:23 15,6 C 93 % 1022,4 hPa 0,0 l/m 3,8 kts (2 Bft) N-NO 24 0 min 0,0 UV-I 0 W/m 14,5 C 15,3 C 5,2 kts (2 Bft) 95,65 %
25.06.2019 02:22 15,5 C 93 % 1022,5 hPa 0,0 l/m 4,2 kts (2 Bft) N-NO 24 0 min 0,0 UV-I 0 W/m 14,4 C 14,8 C 5,2 kts (2 Bft) 100,00 %
25.06.2019 02:21 15,6 C 92 % 1022,5 hPa 0,0 l/m 4,0 kts (2 Bft) N-NO 29 0 min 0,0 UV-I 0 W/m 14,3 C 15,0 C 4,3 kts (2 Bft) 100,00 %
25.06.2019 02:20 15,6 C 92 % 1022,5 hPa 0,0 l/m 3,8 kts (2 Bft) N-NO 31 0 min 0,0 UV-I 0 W/m 14,3 C 15,3 C 4,3 kts (2 Bft) 100,00 %
25.06.2019 02:19 15,6 C 92 % 1022,5 hPa 0,0 l/m 3,9 kts (2 Bft) N-NO 31 0 min 0,0 UV-I 0 W/m 14,3 C 15,1 C 5,2 kts (2 Bft) 100,00 %
25.06.2019 02:18 15,7 C 91 % 1022,5 hPa 0,0 l/m 3,7 kts (2 Bft) N-NO 24 0 min 0,0 UV-I 0 W/m 14,2 C 15,4 C 4,3 kts (2 Bft) 100,00 %
25.06.2019 02:17 15,8 C 91 % 1022,5 hPa 0,0 l/m 3,4 kts (2 Bft) N-NO 24 0 min 0,0 UV-I 0 W/m 14,3 C 15,8 C 4,3 kts (2 Bft) 100,00 %
25.06.2019 02:16 15,9 C 91 % 1022,5 hPa 0,0 l/m 4,6 kts (2 Bft) N-NO 24 0 min 0,0 UV-I 0 W/m 14,4 C 14,8 C 8,7 kts (3 Bft) 95,65 %
25.06.2019 02:15 16,1 C 91 % 1022,5 hPa 0,0 l/m 3,1 kts (2 Bft) N-NO 25 0 min 0,0 UV-I 0 W/m 14,6 C 16,1 C 4,3 kts (2 Bft) 100,00 %
25.06.2019 02:14 16,3 C 90 % 1022,5 hPa 0,0 l/m 3,5 kts (2 Bft) N-NO 25 0 min 0,0 UV-I 0 W/m 14,7 C 16,3 C 4,3 kts (2 Bft) 100,00 %
25.06.2019 02:13 16,4 C 91 % 1022,5 hPa 0,0 l/m 3,9 kts (2 Bft) N-NO 25 0 min 0,0 UV-I 0 W/m 14,9 C 15,9 C 5,2 kts (2 Bft) 100,00 %
25.06.2019 02:12 16,4 C 91 % 1022,5 hPa 0,0 l/m 3,6 kts (2 Bft) N-NO 25 0 min 0,0 UV-I 0 W/m 14,9 C 16,3 C 4,3 kts (2 Bft) 100,00 %
25.06.2019 02:11 16,3 C 91 % 1022,5 hPa 0,0 l/m 4,3 kts (2 Bft) N-NO 22 0 min 0,0 UV-I 0 W/m 14,8 C 15,5 C 4,3 kts (2 Bft) 98,96 %
25.06.2019 02:09 16,3 C 91 % 1022,6 hPa 0,0 l/m 4,6 kts (2 Bft) N-NO 13 0 min 0,0 UV-I 0 W/m 14,8 C 15,2 C 6,1 kts (2 Bft) 98,96 %
25.06.2019 02:08 16,2 C 91 % 1022,6 hPa 0,0 l/m 4,0 kts (2 Bft) N-NO 28 0 min 0,0 UV-I 0 W/m 14,7 C 15,7 C 4,3 kts (2 Bft) 100,00 %
25.06.2019 02:07 16,2 C 91 % 1022,5 hPa 0,0 l/m 3,9 kts (2 Bft) N-NO 28 0 min 0,0 UV-I 0 W/m 14,7 C 15,7 C 4,3 kts (2 Bft) 100,00 %
25.06.2019 02:06 16,2 C 92 % 1022,5 hPa 0,0 l/m 4,2 kts (2 Bft) N-NO 28 0 min 0,0 UV-I 0 W/m 14,9 C 15,5 C 5,2 kts (2 Bft) 100,00 %
25.06.2019 02:05 16,2 C 92 % 1022,6 hPa 0,0 l/m 3,6 kts (2 Bft) N-NO 28 0 min 0,0 UV-I 0 W/m 14,9 C 16,1 C 4,3 kts (2 Bft) 100,00 %
25.06.2019 02:04 16,1 C 92 % 1022,6 hPa 0,0 l/m 3,8 kts (2 Bft) N-NO 28 0 min 0,0 UV-I 0 W/m 14,8 C 15,7 C 4,3 kts (2 Bft) 100,00 %
25.06.2019 02:03 16,1 C 92 % 1022,6 hPa 0,0 l/m 3,0 kts (1 Bft) N-NO 28 0 min 0,0 UV-I 0 W/m 14,8 C 16,1 C 3,5 kts (2 Bft) 100,00 %
25.06.2019 02:02 16,1 C 92 % 1022,6 hPa 0,0 l/m 3,0 kts (1 Bft) N-NO 28 0 min 0,0 UV-I 0 W/m 14,8 C 16,1 C 3,5 kts (2 Bft) 91,67 %
25.06.2019 02:01 16,1 C 92 % 1022,6 hPa 0,0 l/m 2,8 kts (1 Bft) N-NO 28 0 min 0,0 UV-I 0 W/m 14,8 C 16,1 C 3,5 kts (2 Bft) 100,00 %
25.06.2019 02:00 16,0 C 92 % 1022,7 hPa 0,0 l/m 2,6 kts (1 Bft) N-NO 28 0 min 0,0 UV-I 0 W/m 14,7 C 16,0 C 3,5 kts (2 Bft) 100,00 %
25.06.2019 01:59 16,0 C 92 % 1022,7 hPa 0,0 l/m 2,5 kts (1 Bft) N-NO 28 0 min 0,0 UV-I 0 W/m 14,7 C 16,0 C 2,6 kts (1 Bft) 100,00 %
25.06.2019 01:58 16,1 C 92 % 1022,6 hPa 0,0 l/m 2,6 kts (1 Bft) N-NO 28 0 min 0,0 UV-I 0 W/m 14,8 C 16,1 C 3,5 kts (2 Bft) 100,00 %
25.06.2019 01:57 16,1 C 91 % 1022,6 hPa 0,0 l/m 2,6 kts (1 Bft) N-NO 28 0 min 0,0 UV-I 0 W/m 14,6 C 16,1 C 3,5 kts (2 Bft) 96,15 %
25.06.2019 01:56 16,1 C 91 % 1022,6 hPa 0,0 l/m 3,1 kts (1 Bft) N-NO 28 0 min 0,0 UV-I 0 W/m 14,6 C 16,1 C 3,5 kts (2 Bft) 100,00 %
25.06.2019 01:55 16,2 C 92 % 1022,6 hPa 0,0 l/m 2,9 kts (1 Bft) N-NO 28 0 min 0,0 UV-I 0 W/m 14,9 C 16,2 C 3,5 kts (2 Bft) 100,00 %
25.06.2019 01:54 16,2 C 92 % 1022,6 hPa 0,0 l/m 2,5 kts (1 Bft) N-NO 28 0 min 0,0 UV-I 0 W/m 14,9 C 16,2 C 3,5 kts (2 Bft) 100,00 %
25.06.2019 01:53 16,1 C 92 % 1022,7 hPa 0,0 l/m 3,3 kts (2 Bft) N-NO 28 0 min 0,0 UV-I 0 W/m 14,8 C 16,1 C 4,3 kts (2 Bft) 100,00 %
25.06.2019 01:52 16,1 C 92 % 1022,6 hPa 0,0 l/m 3,0 kts (1 Bft) N-NO 28 0 min 0,0 UV-I 0 W/m 14,8 C 16,1 C 4,3 kts (2 Bft) 96,15 %
25.06.2019 01:51 15,9 C 92 % 1022,7 hPa 0,0 l/m 3,6 kts (2 Bft) N-NO 28 0 min 0,0 UV-I 0 W/m 14,6 C 15,8 C 4,3 kts (2 Bft) 100,00 %
25.06.2019 01:50 15,9 C 92 % 1022,7 hPa 0,0 l/m 1,7 kts (1 Bft) NO 39 0 min 0,0 UV-I 0 W/m 14,6 C 15,9 C 1,7 kts (1 Bft) 98,88 %
25.06.2019 01:49 15,9 C 92 % 1022,7 hPa 0,0 l/m 2,6 kts (1 Bft) N-NO 26 0 min 0,0 UV-I 0 W/m 14,6 C 15,9 C 2,6 kts (1 Bft) 98,88 %
25.06.2019 01:48 15,9 C 92 % 1022,8 hPa 0,0 l/m 2,6 kts (1 Bft) N-NO 26 0 min 0,0 UV-I 0 W/m 14,6 C 15,9 C 2,6 kts (1 Bft) 98,88 %
25.06.2019 01:47 16,0 C 92 % 1022,7 hPa 0,0 l/m 2,1 kts (1 Bft) N-NO 26 0 min 0,0 UV-I 0 W/m 14,7 C 16,0 C 2,6 kts (1 Bft) 93,33 %
25.06.2019 01:46 16,0 C 92 % 1022,7 hPa 0,0 l/m 3,0 kts (1 Bft) N-NO 26 0 min 0,0 UV-I 0 W/m 14,7 C 16,0 C 3,5 kts (2 Bft) 100,00 %
25.06.2019 01:45 16,1 C 91 % 1022,7 hPa 0,0 l/m 3,0 kts (1 Bft) N-NO 26 0 min 0,0 UV-I 0 W/m 14,6 C 16,1 C 3,5 kts (2 Bft) 95,83 %
25.06.2019 01:44 16,1 C 91 % 1022,7 hPa 0,0 l/m 2,1 kts (1 Bft) N-NO 26 0 min 0,0 UV-I 0 W/m 14,6 C 16,1 C 2,6 kts (1 Bft) 100,00 %
25.06.2019 01:43 16,3 C 91 % 1022,7 hPa 0,0 l/m 2,4 kts (1 Bft) N-NO 26 0 min 0,0 UV-I 0 W/m 14,8 C 16,3 C 2,6 kts (1 Bft) 96,67 %
25.06.2019 01:42 16,4 C 91 % 1022,7 hPa 0,0 l/m 2,8 kts (1 Bft) N-NO 26 0 min 0,0 UV-I 0 W/m 14,9 C 16,4 C 3,5 kts (2 Bft) 100,00 %
25.06.2019 01:41 16,4 C 91 % 1022,7 hPa 0,0 l/m 2,6 kts (1 Bft) N-NO 26 0 min 0,0 UV-I 0 W/m 14,9 C 16,4 C 3,5 kts (2 Bft) 97,78 %
25.06.2019 01:40 16,5 C 90 % 1022,7 hPa 0,0 l/m 2,4 kts (1 Bft) N-NO 26 0 min 0,0 UV-I 0 W/m 14,9 C 16,5 C 2,6 kts (1 Bft) 98,96 %
25.06.2019 01:39 16,6 C 91 % 1022,8 hPa 0,0 l/m 2,3 kts (1 Bft) N-NO 26 0 min 0,0 UV-I 0 W/m 15,1 C 16,6 C 2,6 kts (1 Bft) 94,29 %
25.06.2019 01:38 16,6 C 91 % 1022,8 hPa 0,0 l/m 2,4 kts (1 Bft) N-NO 26 0 min 0,0 UV-I 0 W/m 15,1 C 16,6 C 2,6 kts (1 Bft) 100,00 %
25.06.2019 01:37 16,6 C 91 % 1022,7 hPa 0,0 l/m 3,1 kts (2 Bft) N-NO 26 0 min 0,0 UV-I 0 W/m 15,1 C 16,6 C 3,5 kts (2 Bft) 96,55 %
25.06.2019 01:36 16,7 C 91 % 1022,7 hPa 0,0 l/m 3,7 kts (2 Bft) N-NO 26 0 min 0,0 UV-I 0 W/m 15,2 C 16,5 C 5,2 kts (2 Bft) 100,00 %
25.06.2019 01:35 16,7 C 91 % 1022,7 hPa 0,0 l/m 3,8 kts (2 Bft) N-NO 29 0 min 0,0 UV-I 0 W/m 15,2 C 16,3 C 4,3 kts (2 Bft) 96,15 %
25.06.2019 01:34 16,7 C 91 % 1022,7 hPa 0,0 l/m 4,3 kts (2 Bft) N-NO 30 0 min 0,0 UV-I 0 W/m 15,2 C 15,9 C 5,2 kts (2 Bft) 96,30 %
25.06.2019 01:33 16,7 C 90 % 1022,7 hPa 0,0 l/m 4,1 kts (2 Bft) N-NO 30 0 min 0,0 UV-I 0 W/m 15,0 C 16,1 C 5,2 kts (2 Bft) 100,00 %
25.06.2019 01:32 16,7 C 90 % 1022,7 hPa 0,0 l/m 4,4 kts (2 Bft) NO 38 0 min 0,0 UV-I 0 W/m 15,0 C 15,8 C 5,2 kts (2 Bft) 92,86 %
25.06.2019 01:31 16,7 C 91 % 1022,7 hPa 0,0 l/m 3,3 kts (2 Bft) NO 38 0 min 0,0 UV-I 0 W/m 15,2 C 16,7 C 4,3 kts (2 Bft) 95,83 %
25.06.2019 01:30 16,7 C 91 % 1022,8 hPa 0,0 l/m 3,6 kts (2 Bft) NO 39 0 min 0,0 UV-I 0 W/m 15,2 C 16,6 C 5,2 kts (2 Bft) 95,65 %
25.06.2019 01:29 16,7 C 91 % 1022,7 hPa 0,0 l/m 3,3 kts (2 Bft) NO 38 0 min 0,0 UV-I 0 W/m 15,2 C 16,7 C 4,3 kts (2 Bft) 96,30 %
25.06.2019 01:28 16,6 C 91 % 1022,8 hPa 0,0 l/m 2,7 kts (1 Bft) NO 39 0 min 0,0 UV-I 0 W/m 15,1 C 16,6 C 3,5 kts (2 Bft) 95,65 %
25.06.2019 01:27 16,7 C 91 % 1022,8 hPa 0,0 l/m 2,4 kts (1 Bft) NO 39 0 min 0,0 UV-I 0 W/m 15,2 C 16,7 C 2,6 kts (1 Bft) 95,83 %
25.06.2019 01:26 16,6 C 91 % 1022,8 hPa 0,0 l/m 3,0 kts (1 Bft) NO 39 0 min 0,0 UV-I 0 W/m 15,1 C 16,6 C 3,5 kts (2 Bft) 100,00 %
25.06.2019 01:25 16,6 C 91 % 1022,8 hPa 0,0 l/m 2,4 kts (1 Bft) NO 39 0 min 0,0 UV-I 0 W/m 15,1 C 16,6 C 3,5 kts (2 Bft) 96,15 %
25.06.2019 01:24 16,6 C 91 % 1022,7 hPa 0,0 l/m 2,7 kts (1 Bft) NO 39 0 min 0,0 UV-I 0 W/m 15,1 C 16,6 C 4,3 kts (2 Bft) 100,00 %
25.06.2019 01:23 16,6 C 91 % 1022,7 hPa 0,0 l/m 3,0 kts (1 Bft) O-NO 57 0 min 0,0 UV-I 0 W/m 15,1 C 16,6 C 3,5 kts (2 Bft) 95,65 %
25.06.2019 01:22 16,6 C 91 % 1022,7 hPa 0,0 l/m 1,5 kts (1 Bft) O-NO 57 0 min 0,0 UV-I 0 W/m 15,1 C 16,6 C 2,6 kts (1 Bft) 100,00 %
25.06.2019 01:21 16,6 C 91 % 1022,7 hPa 0,0 l/m 1,7 kts (1 Bft) O-NO 57 0 min 0,0 UV-I 0 W/m 15,1 C 16,6 C 2,6 kts (1 Bft) 96,30 %
25.06.2019 01:20 16,6 C 91 % 1022,6 hPa 0,0 l/m 1,5 kts (1 Bft) O-NO 57 0 min 0,0 UV-I 0 W/m 15,1 C 16,6 C 2,6 kts (1 Bft) 100,00 %
25.06.2019 01:19 16,6 C 91 % 1022,7 hPa 0,0 l/m 1,8 kts (1 Bft) O-NO 57 0 min 0,0 UV-I 0 W/m 15,1 C 16,6 C 2,6 kts (1 Bft) 96,30 %
25.06.2019 01:18 16,6 C 91 % 1022,8 hPa 0,0 l/m 2,5 kts (1 Bft) O-NO 57 0 min 0,0 UV-I 0 W/m 15,1 C 16,6 C 4,3 kts (2 Bft) 96,15 %
25.06.2019 01:17 16,6 C 91 % 1022,7 hPa 0,0 l/m 2,5 kts (1 Bft) NO 53 0 min 0,0 UV-I 0 W/m 15,1 C 16,6 C 4,3 kts (2 Bft) 100,00 %
25.06.2019 01:16 16,6 C 91 % 1022,8 hPa 0,0 l/m 2,6 kts (1 Bft) NO 49 0 min 0,0 UV-I 0 W/m 15,1 C 16,6 C 4,3 kts (2 Bft) 95,65 %
25.06.2019 01:15 16,6 C 91 % 1022,8 hPa 0,0 l/m 3,2 kts (2 Bft) NO 52 0 min 0,0 UV-I 0 W/m 15,1 C 16,6 C 4,3 kts (2 Bft) 100,00 %
25.06.2019 01:14 16,7 C 90 % 1022,7 hPa 0,0 l/m 2,2 kts (1 Bft) O-NO 59 0 min 0,0 UV-I 0 W/m 15,0 C 16,7 C 3,5 kts (2 Bft) 91,67 %
25.06.2019 01:13 16,8 C 90 % 1022,7 hPa 0,0 l/m 2,2 kts (1 Bft) O 84 0 min 0,0 UV-I 0 W/m 15,1 C 16,8 C 2,6 kts (1 Bft) 100,00 %
25.06.2019 01:12 16,8 C 90 % 1022,7 hPa 0,0 l/m 0,9 kts (1 Bft) O 87 0 min 0,0 UV-I 0 W/m 15,1 C 16,8 C 1,7 kts (1 Bft) 95,83 %
25.06.2019 01:11 16,8 C 90 % 1022,7 hPa 0,0 l/m 3,2 kts (2 Bft) O 87 0 min 0,0 UV-I 0 W/m 15,1 C 16,8 C 5,2 kts (2 Bft) 96,15 %
25.06.2019 01:10 16,8 C 90 % 1022,8 hPa 0,0 l/m 2,9 kts (1 Bft) O-NO 61 0 min 0,0 UV-I 0 W/m 15,1 C 16,8 C 5,2 kts (2 Bft) 100,00 %
25.06.2019 01:09 16,8 C 90 % 1022,8 hPa 0,0 l/m 1,9 kts (1 Bft) O-NO 61 0 min 0,0 UV-I 0 W/m 15,1 C 16,8 C 2,6 kts (1 Bft) 100,00 %
25.06.2019 01:08 16,9 C 90 % 1022,8 hPa 0,0 l/m 0,9 kts (1 Bft) O-NO 61 0 min 0,0 UV-I 0 W/m 15,2 C 16,9 C 1,7 kts (1 Bft) 95,65 %
25.06.2019 01:07 16,9 C 91 % 1022,7 hPa 0,0 l/m 1,5 kts (1 Bft) O-NO 61 0 min 0,0 UV-I 0 W/m 15,4 C 16,9 C 2,6 kts (1 Bft) 100,00 %
25.06.2019 01:06 16,8 C 91 % 1022,7 hPa 0,0 l/m 1,6 kts (1 Bft) O-NO 61 0 min 0,0 UV-I 0 W/m 15,3 C 16,8 C 1,7 kts (1 Bft) 100,00 %
25.06.2019 01:05 16,8 C 90 % 1022,7 hPa 0,0 l/m 2,3 kts (1 Bft) O-NO 61 0 min 0,0 UV-I 0 W/m 15,1 C 16,8 C 2,6 kts (1 Bft) 100,00 %
25.06.2019 01:04 16,8 C 90 % 1022,7 hPa 0,0 l/m 1,0 kts (1 Bft) O-NO 61 0 min 0,0 UV-I 0 W/m 15,1 C 16,8 C 1,7 kts (1 Bft) 100,00 %
25.06.2019 01:03 16,8 C 90 % 1022,7 hPa 0,0 l/m 0,8 kts (1 Bft) O-NO 61 0 min 0,0 UV-I 0 W/m 15,1 C 16,8 C 1,7 kts (1 Bft) 100,00 %
25.06.2019 01:02 16,8 C 90 % 1022,7 hPa 0,0 l/m 0,9 kts (1 Bft) O-NO 61 0 min 0,0 UV-I 0 W/m 15,1 C 16,8 C 1,7 kts (1 Bft) 100,00 %
25.06.2019 01:01 16,9 C 90 % 1022,7 hPa 0,0 l/m 1,5 kts (1 Bft) O-NO 61 0 min 0,0 UV-I 0 W/m 15,2 C 16,9 C 1,7 kts (1 Bft) 100,00 %
25.06.2019 01:00 16,9 C 90 % 1022,7 hPa 0,0 l/m 1,7 kts (1 Bft) O-NO 61 0 min 0,0 UV-I 0 W/m 15,2 C 16,9 C 2,6 kts (1 Bft) 100,00 %
25.06.2019 00:59 16,9 C 90 % 1022,7 hPa 0,0 l/m 1,0 kts (1 Bft) O-NO 61 0 min 0,0 UV-I 0 W/m 15,2 C 16,9 C 1,7 kts (1 Bft) 100,00 %
25.06.2019 00:58 17,0 C 90 % 1022,7 hPa 0,0 l/m 1,0 kts (1 Bft) O-NO 61 0 min 0,0 UV-I 0 W/m 15,3 C 17,0 C 1,7 kts (1 Bft) 100,00 %
25.06.2019 00:57 17,1 C 89 % 1022,7 hPa 0,0 l/m 1,3 kts (1 Bft) O-NO 61 0 min 0,0 UV-I 0 W/m 15,3 C 17,1 C 1,7 kts (1 Bft) 100,00 %
25.06.2019 00:56 17,1 C 89 % 1022,6 hPa 0,0 l/m 2,2 kts (1 Bft) O-NO 61 0 min 0,0 UV-I 0 W/m 15,3 C 17,1 C 3,5 kts (2 Bft) 100,00 %
25.06.2019 00:55 17,1 C 90 % 1022,7 hPa 0,0 l/m 0,8 kts (1 Bft) O-NO 61 0 min 0,0 UV-I 0 W/m 15,4 C 17,1 C 1,7 kts (1 Bft) 100,00 %
25.06.2019 00:54 17,1 C 90 % 1022,7 hPa 0,0 l/m 1,0 kts (1 Bft) O-NO 61 0 min 0,0 UV-I 0 W/m 15,4 C 17,1 C 1,7 kts (1 Bft) 100,00 %
25.06.2019 00:53 17,2 C 89 % 1022,7 hPa 0,0 l/m 1,1 kts (1 Bft) O-NO 61 0 min 0,0 UV-I 0 W/m 15,4 C 17,2 C 1,7 kts (1 Bft) 100,00 %
25.06.2019 00:52 17,2 C 90 % 1022,7 hPa 0,0 l/m 0,6 kts (1 Bft) O-NO 61 0 min 0,0 UV-I 0 W/m 15,5 C 17,2 C 1,7 kts (1 Bft) 100,00 %
25.06.2019 00:51 17,1 C 90 % 1022,7 hPa 0,0 l/m 0,5 kts (0 Bft) O-NO 61 0 min 0,0 UV-I 0 W/m 15,4 C 17,1 C 0,9 kts (1 Bft) 100,00 %
25.06.2019 00:50 17,1 C 90 % 1022,7 hPa 0,0 l/m 0,9 kts (1 Bft) O-NO 61 0 min 0,0 UV-I 0 W/m 15,4 C 17,1 C 1,7 kts (1 Bft) 100,00 %
25.06.2019 00:49 17,1 C 90 % 1022,7 hPa 0,0 l/m 0,5 kts (0 Bft) O-NO 61 0 min 0,0 UV-I 0 W/m 15,4 C 17,1 C 1,7 kts (1 Bft) 100,00 %
25.06.2019 00:48 17,1 C 90 % 1022,7 hPa 0,0 l/m 0,4 kts (0 Bft) O-NO 61 0 min 0,0 UV-I 0 W/m 15,4 C 17,1 C 0,9 kts (1 Bft) 100,00 %
25.06.2019 00:47 17,1 C 90 % 1022,8 hPa 0,0 l/m 1,1 kts (1 Bft) O-NO 61 0 min 0,0 UV-I 0 W/m 15,4 C 17,1 C 1,7 kts (1 Bft) 100,00 %
25.06.2019 00:46 17,1 C 90 % 1022,7 hPa 0,0 l/m 0,6 kts (1 Bft) O-NO 61 0 min 0,0 UV-I 0 W/m 15,4 C 17,1 C 1,7 kts (1 Bft) 100,00 %
25.06.2019 00:45 17,1 C 90 % 1022,7 hPa 0,0 l/m 0,1 kts (0 Bft) O-NO 61 0 min 0,0 UV-I 0 W/m 15,4 C 17,1 C 0,9 kts (1 Bft) 95,65 %
25.06.2019 00:44 17,1 C 90 % 1022,7 hPa 0,0 l/m 0,1 kts (0 Bft) O-NO 61 0 min 0,0 UV-I 0 W/m 15,4 C 17,1 C 0,9 kts (1 Bft) 100,00 %
25.06.2019 00:43 17,1 C 90 % 1022,7 hPa 0,0 l/m 0,1 kts (0 Bft) O-NO 61 0 min 0,0 UV-I 0 W/m 15,4 C 17,1 C 0,9 kts (1 Bft) 100,00 %
25.06.2019 00:42 17,1 C 90 % 1022,7 hPa 0,0 l/m 0,1 kts (0 Bft) O-NO 61 0 min 0,0 UV-I 0 W/m 15,4 C 17,1 C 0,9 kts (1 Bft) 100,00 %
25.06.2019 00:41 17,1 C 90 % 1022,6 hPa 0,0 l/m 0,2 kts (0 Bft) O-NO 61 0 min 0,0 UV-I 0 W/m 15,4 C 17,1 C 0,9 kts (1 Bft) 100,00 %
25.06.2019 00:40 17,1 C 90 % 1022,7 hPa 0,0 l/m 0,1 kts (0 Bft) O-NO 61 0 min 0,0 UV-I 0 W/m 15,4 C 17,1 C 0,9 kts (1 Bft) 100,00 %
25.06.2019 00:39 17,1 C 90 % 1022,7 hPa 0,0 l/m 0,2 kts (0 Bft) O-NO 61 0 min 0,0 UV-I 0 W/m 15,4 C 17,1 C 0,9 kts (1 Bft) 100,00 %
25.06.2019 00:38 17,1 C 90 % 1022,6 hPa 0,0 l/m 0,2 kts (0 Bft) O-NO 61 0 min 0,0 UV-I 0 W/m 15,4 C 17,1 C 0,9 kts (1 Bft) 100,00 %
25.06.2019 00:37 17,1 C 90 % 1022,7 hPa 0,0 l/m 0,0 kts (0 Bft) O-NO 61 0 min 0,0 UV-I 0 W/m 15,4 C 17,1 C 0,0 kts (0 Bft) 100,00 %
25.06.2019 00:36 17,1 C 89 % 1022,6 hPa 0,0 l/m 0,0 kts (0 Bft) O-NO 61 0 min 0,0 UV-I 0 W/m 15,3 C 17,1 C 0,0 kts (0 Bft) 100,00 %
25.06.2019 00:35 17,2 C 90 % 1022,7 hPa 0,0 l/m 0,0 kts (0 Bft) O-NO 61 0 min 0,0 UV-I 0 W/m 15,5 C 17,2 C 0,0 kts (0 Bft) 100,00 %
25.06.2019 00:34 17,2 C 90 % 1022,7 hPa 0,0 l/m 0,1 kts (0 Bft) O-NO 61 0 min 0,0 UV-I 0 W/m 15,5 C 17,2 C 0,9 kts (1 Bft) 100,00 %
25.06.2019 00:33 17,1 C 90 % 1022,7 hPa 0,0 l/m 0,2 kts (0 Bft) O-NO 61 0 min 0,0 UV-I 0 W/m 15,4 C 17,1 C 0,9 kts (1 Bft) 100,00 %
25.06.2019 00:32 17,1 C 90 % 1022,7 hPa 0,0 l/m 0,1 kts (0 Bft) O-NO 61 0 min 0,0 UV-I 0 W/m 15,4 C 17,1 C 0,9 kts (1 Bft) 100,00 %
25.06.2019 00:31 17,1 C 90 % 1022,6 hPa 0,0 l/m 0,2 kts (0 Bft) O-NO 61 0 min 0,0 UV-I 0 W/m 15,4 C 17,1 C 0,9 kts (1 Bft) 100,00 %
25.06.2019 00:30 17,1 C 90 % 1022,7 hPa 0,0 l/m 0,1 kts (0 Bft) O-NO 61 0 min 0,0 UV-I 0 W/m 15,4 C 17,1 C 0,9 kts (1 Bft) 100,00 %
25.06.2019 00:29 17,1 C 90 % 1022,7 hPa 0,0 l/m 0,2 kts (0 Bft) O-NO 61 0 min 0,0 UV-I 0 W/m 15,4 C 17,1 C 0,9 kts (1 Bft) 100,00 %
25.06.2019 00:28 17,1 C 90 % 1022,7 hPa 0,0 l/m 0,1 kts (0 Bft) O-NO 61 0 min 0,0 UV-I 0 W/m 15,4 C 17,1 C 0,9 kts (1 Bft) 100,00 %
25.06.2019 00:27 17,1 C 90 % 1022,7 hPa 0,0 l/m 0,2 kts (0 Bft) O-NO 61 0 min 0,0 UV-I 0 W/m 15,4 C 17,1 C 0,9 kts (1 Bft) 100,00 %
25.06.2019 00:26 17,1 C 90 % 1022,7 hPa 0,0 l/m 0,0 kts (0 Bft) O-NO 61 0 min 0,0 UV-I 0 W/m 15,4 C 17,1 C 0,0 kts (0 Bft) 100,00 %
25.06.2019 00:25 17,1 C 90 % 1022,7 hPa 0,0 l/m 0,0 kts (0 Bft) O-NO 61 0 min 0,0 UV-I 0 W/m 15,4 C 17,1 C 0,0 kts (0 Bft) 100,00 %
25.06.2019 00:24 17,1 C 90 % 1022,7 hPa 0,0 l/m 0,0 kts (0 Bft) O-NO 61 0 min 0,0 UV-I 0 W/m 15,4 C 17,1 C 0,0 kts (0 Bft) 100,00 %
25.06.2019 00:23 17,2 C 89 % 1022,8 hPa 0,0 l/m 0,0 kts (0 Bft) O-NO 61 0 min 0,0 UV-I 0 W/m 15,4 C 17,2 C 0,0 kts (0 Bft) 100,00 %
25.06.2019 00:22 17,2 C 89 % 1022,7 hPa 0,0 l/m 0,1 kts (0 Bft) O-NO 61 0 min 0,0 UV-I 0 W/m 15,4 C 17,2 C 0,9 kts (1 Bft) 100,00 %
25.06.2019 00:21 17,2 C 89 % 1022,8 hPa 0,0 l/m 0,3 kts (0 Bft) O-NO 61 0 min 0,0 UV-I 0 W/m 15,4 C 17,2 C 0,9 kts (1 Bft) 100,00 %
25.06.2019 00:20 17,3 C 89 % 1022,7 hPa 0,0 l/m 0,1 kts (0 Bft) O-NO 61 0 min 0,0 UV-I 0 W/m 15,5 C 17,3 C 0,9 kts (1 Bft) 100,00 %
25.06.2019 00:19 17,4 C 89 % 1022,7 hPa 0,0 l/m 0,0 kts (0 Bft) O-NO 61 0 min 0,0 UV-I 0 W/m 15,6 C 17,4 C 0,0 kts (0 Bft) 100,00 %
25.06.2019 00:18 17,4 C 89 % 1022,8 hPa 0,0 l/m 1,1 kts (1 Bft) O-NO 61 0 min 0,0 UV-I 0 W/m 15,6 C 17,4 C 1,7 kts (1 Bft) 100,00 %
25.06.2019 00:17 17,4 C 89 % 1022,7 hPa 0,0 l/m 0,5 kts (0 Bft) O-NO 61 0 min 0,0 UV-I 0 W/m 15,6 C 17,4 C 1,7 kts (1 Bft) 100,00 %
25.06.2019 00:16 17,4 C 89 % 1022,7 hPa 0,0 l/m 0,2 kts (0 Bft) O-NO 61 0 min 0,0 UV-I 0 W/m 15,6 C 17,4 C 0,9 kts (1 Bft) 100,00 %
25.06.2019 00:15 17,4 C 89 % 1022,7 hPa 0,0 l/m 0,2 kts (0 Bft) O-NO 61 0 min 0,0 UV-I 0 W/m 15,6 C 17,4 C 0,9 kts (1 Bft) 100,00 %
25.06.2019 00:14 17,4 C 89 % 1022,7 hPa 0,0 l/m 0,9 kts (1 Bft) O-NO 61 0 min 0,0 UV-I 0 W/m 15,6 C 17,4 C 1,7 kts (1 Bft) 100,00 %
25.06.2019 00:13 17,5 C 88 % 1022,7 hPa 0,0 l/m 0,8 kts (1 Bft) O-NO 61 0 min 0,0 UV-I 0 W/m 15,5 C 17,5 C 1,7 kts (1 Bft) 100,00 %
25.06.2019 00:12 17,5 C 88 % 1022,7 hPa 0,0 l/m 0,4 kts (0 Bft) O-NO 61 0 min 0,0 UV-I 0 W/m 15,5 C 17,5 C 0,9 kts (1 Bft) 100,00 %
25.06.2019 00:11 17,5 C 88 % 1022,8 hPa 0,0 l/m 0,3 kts (0 Bft) O-NO 61 0 min 0,0 UV-I 0 W/m 15,5 C 17,5 C 0,9 kts (1 Bft) 100,00 %
25.06.2019 00:10 17,6 C 88 % 1022,7 hPa 0,0 l/m 0,0 kts (0 Bft) O-NO 61 0 min 0,0 UV-I 0 W/m 15,6 C 17,6 C 0,0 kts (0 Bft) 100,00 %
25.06.2019 00:09 17,6 C 88 % 1022,7 hPa 0,0 l/m 0,0 kts (0 Bft) O-NO 61 0 min 0,0 UV-I 0 W/m 15,6 C 17,6 C 0,0 kts (0 Bft) 100,00 %
25.06.2019 00:08 17,6 C 88 % 1022,8 hPa 0,0 l/m 0,0 kts (0 Bft) O-NO 61 0 min 0,0 UV-I 0 W/m 15,6 C 17,6 C 0,0 kts (0 Bft) 100,00 %
25.06.2019 00:07 17,5 C 88 % 1022,8 hPa 0,0 l/m 0,0 kts (0 Bft) O-NO 61 0 min 0,0 UV-I 0 W/m 15,5 C 17,5 C 0,0 kts (0 Bft) 100,00 %
25.06.2019 00:06 17,6 C 88 % 1022,8 hPa 0,0 l/m 0,0 kts (0 Bft) O-NO 61 0 min 0,0 UV-I 0 W/m 15,6 C 17,6 C 0,0 kts (0 Bft) 95,65 %
25.06.2019 00:05 17,5 C 88 % 1022,8 hPa 0,0 l/m 0,0 kts (0 Bft) O-NO 61 0 min 0,0 UV-I 0 W/m 15,5 C 17,5 C 0,0 kts (0 Bft) 100,00 %
25.06.2019 00:04 17,5 C 88 % 1022,7 hPa 0,0 l/m 0,0 kts (0 Bft) O-NO 61 0 min 0,0 UV-I 0 W/m 15,5 C 17,5 C 0,0 kts (0 Bft) 96,15 %
25.06.2019 00:03 17,5 C 88 % 1022,8 hPa 0,0 l/m 0,2 kts (0 Bft) O-NO 61 0 min 0,0 UV-I 0 W/m 15,5 C 17,5 C 0,9 kts (1 Bft) 100,00 %
25.06.2019 00:02 17,6 C 88 % 1022,8 hPa 0,0 l/m 0,0 kts (0 Bft) O-NO 61 0 min 0,0 UV-I 0 W/m 15,6 C 17,6 C 0,0 kts (0 Bft) 100,00 %
25.06.2019 00:01 17,5 C 88 % 1022,8 hPa 0,0 l/m 0,0 kts (0 Bft) O-NO 61 0 min 0,0 UV-I 0 W/m 15,5 C 17,5 C 0,0 kts (0 Bft) 100,00 %
25.06.2019 00:00 17,6 C 88 % 1022,7 hPa 0,0 l/m 0,0 kts (0 Bft) O-NO 61 0 min 0,0 UV-I 0 W/m 15,6 C 17,6 C 0,0 kts (0 Bft) 100,00 %
_ Min-Zeit 05:10 00:00 04:23 - 00:00 - - - - - 05:06 05:10 00:00 01:14
Minimum _ 14,1 C 88 % 1021,8 hPa - 0,0 kts (0 Bft) - - - - - 13,2 C 13,6 C 0,0 kts (0 Bft) 91,67 %
_ Max-Zeit 00:00 03:52 00:01 00:00 05:43 - - 00:00 00:00 05:55 00:00 00:00 02:16 00:00
Maximum _ 17,6 C 95 % 1022,8 hPa 0,0 l/m 5,0 kts
N-NO (2 Bft)
- - 0 min 0,0 UV-I 23 W/m 15,6 C 17,6 C 8,7 kts
N-NO (3 Bft)
100,00 %
Durchschnitt _ 15,8 C 92 % 1022,3 hPa #0,0 l/m 3,0 kts (1 Bft) N-NO - #0 min. 0,0 UV-I 14 W/m 14,5 C 15,5 C 3,7 kts (2 Bft) 99,00 %